Miscellaneous Local Product
Issued by NWS Hastings, NE

Home | Current Version | Previous Version | Text Only | Print | Product List | Glossary Off
Versions: 1 2 3 4 5 6 7 8 9 10 11 12 13 14 15 16 17 18 19 20 21 22 23 24 25 26 27 28 29 30 31 32 33 34 35 36 37 38 39 40 41 42 43 44 45 46 47 48 49 50

000
AXUS43 KGID 161802
MISGRI

GID CWA HOURLY WEATHER ROUNDUP
NATIONAL WEATHER SERVICE HASTINGS NE
1200 PM CST TUE DEC 16 2014

NOTE: "FAIR" INDICATES FEW OR NO CLOUDS BELOW 12,000 FEET WITH NO
SIGNIFICANT WEATHER AND/OR OBSTRUCTIONS TO VISIBILITY.

...SOUTH CENTRAL NEBRASKA...

CITY           SKY/WX    TMP DP  RH WIND       PRES   REMARKS
GRAND ISLAND   CLOUDY    25  19  78 N16       30.34F WCI  12
HASTINGS       CLOUDY    25  18  74 NW13      30.33S WCI  14
KEARNEY        CLOUDY    25  18  74 NW12      30.32F WCI  14
ORD            CLOUDY    23  17  78 NW15      30.31F WCI  10
YORK           CLOUDY    25  19  80 NW18G25   30.33S WCI  11
AURORA         CLOUDY    24  20  83 N18       30.34S WCI  11
LEXINGTON      CLOUDY    24  20  85 N12       30.32F WCI  13
HOLDREGE       CLOUDY    24  19  81 N8        30.32F WCI  15
HEBRON         CLOUDY    27  19  71 N13G20    30.36R WCI  16

...NEBRASKA PANHANDLE...

CITY           SKY/WX    TMP DP  RH WIND       PRES   REMARKS
CHADRON        CLOUDY    20  16  84 SE7       30.24F WCI  11
ALLIANCE       FOG       19  15  84 SE6       30.21S VSB 1/4 WCI  11
SCOTTSBLUFF    FOG       10   8  92 SE7       30.19F VSB 1/2 WCI  -1
SIDNEY         SUNNY     25  20  81 S5        30.18F WCI  19

...WESTERN AND NORTH CENTRAL NEBRASKA...

CITY           SKY/WX    TMP DP  RH WIND       PRES   REMARKS
VALENTINE      CLOUDY    21  16  81 NW9       30.30F WCI  11
AINSWORTH      CLOUDY    21  18  86 N7        30.30S WCI  13
ONEILL         CLOUDY    20  18  90 NW9       30.33S WCI  10
BROKEN BOW     CLOUDY    23  20  88 N14       30.30F WCI  11
IMPERIAL       CLOUDY    21  18  88 CALM      30.27F FOG
NORTH PLATTE   CLOUDY    22  16  78 N5        30.30F WCI  16
MCCOOK         PTSUNNY   26  18  71 N8        30.31F WCI  18

...EASTERN NEBRASKA...

CITY           SKY/WX    TMP DP  RH WIND       PRES   REMARKS
NORFOLK        CLOUDY    22  17  81 NW20      30.31S WCI   7
SO SIOUX CITY  SUNNY     24  14  65 NW21G30   30.29S WCI   9
TEKAMAH        MOSUNNY   27  17  66 NW23G32   30.31S WCI  12
COLUMBUS       CLOUDY    23  12  63 NW17      30.35R WCI   9
ALBION         CLOUDY    22  17  79 N14       30.34R WCI   9
OMAHA EPPLEY   PTSUNNY   27  18  69 NW23      30.31S WCI  12
OFFUTT AFB     CLOUDY    26  18  70 NW12G22   30.31R WCI  16
MILLARD        CLOUDY    26  18  71 NW13G23   30.31S WCI  15
LINCOLN        CLOUDY    26  18  71 N17       30.35S WCI  13
NEBRASKA CITY  CLOUDY    26  19  75 N18       30.30S WCI  12
BEATRICE       CLOUDY    26  19  76 NW16G26   30.33S WCI  14
FALLS CITY     CLOUDY    28  20  71 NW14      30.30F WCI  17

...NORTHERN KANSAS...

CITY           SKY/WX    TMP DP  RH WIND       PRES   REMARKS
GOODLAND       MOSUNNY   32  18  56 SW3       30.25F
HILL CITY      MOSUNNY   29  20  69 NW6       30.34F WCI  23
NORTON         CLOUDY    25  18  74 N8        30.32F WCI  16
PHILLIPSBURG   PTSUNNY   30  21  69 NW9       30.35F WCI  22
SMITH CENTER   PTSUNNY   27  19  74 NW10      30.36S WCI  17
BELOIT         CLOUDY    32  21  64 NW10G17   30.36S WCI  24
HAYS           SUNNY     30  16  55 N9        30.34F WCI  22
RUSSELL        MOSUNNY   31  21  66 N8        30.33F WCI  23
CONCORDIA      CLOUDY    29  21  72 N14       30.35S WCI  18
SALINA         MOSUNNY   35  22  58 N13       30.36F WCI  26
TOPEKA         CLOUDY    32  22  66 NW14      30.33S WCI  22



USA.gov is the U.S. government's official web portal to all federal, state and local government web resources and services.